Regional Weather Roundup
Issued by NWS

Home | Current Version | Previous Version | Text Only | Print | Product List | Glossary On
Versions: 1 2 3 4 5 6 7 8 9 10 11 12 13 14 15 16 17 18 19 20 21 22 23 24 25 26 27 28 29 30 31 32 33 34 35 36 37 38 39 40 41 42 43 44 45 46 47 48 49 50
111
ASUS44 KOUN 241310
RWROK

WEATHER ROUNDUP FOR OKLAHOMA
NATIONAL WEATHER SERVICE NORMAN OK
700 AM CST TUE JAN 24 2017

NOTE: "FAIR" INDICATES FEW OR NO CLOUDS BELOW 12,000 FEET WITH NO
      SIGNIFICANT WEATHER AND/OR OBSTRUCTIONS TO VISIBILITY.

OKZ001>007-009>012-014-015-017-241400-
NORTHWEST OKLAHOMA AND THE PANHANDLE

CITY           SKY/WX    TMP DP  RH WIND       PRES   REMARKS
GAGE           CLEAR     46  31  55 S16       29.47S
GUYMON         CLEAR     38  30  73 SW12      29.47S WCI  30
ENID/WOODRING  PTCLDY    37  36  93 S12       29.53F WCI  30
$$

OKZ016-021>023-033>039-044-045-241400-
SOUTHWEST OKLAHOMA

CITY           SKY/WX    TMP DP  RH WIND       PRES   REMARKS
LAWTON/REGL    CLOUDY    35  32  88 E3        29.59F
LAWTON/FT SILL MOCLDY    41  39  95 S3        29.58S
FREDERICK      MOCLDY    42  38  85 E9        29.55S
CLINTON        CLEAR     45  34  65 S13       29.55R
HOBART         PTCLDY    46  37  71 S15       29.55S
ALTUS AFB      CLOUDY    39  34  82 SE8       29.56R WCI  33
$$

OKZ018>020-024>031-241400-
CENTRAL OKLAHOMA

CITY           SKY/WX    TMP DP  RH WIND       PRES   REMARKS
OKLAHOMA CITY  CLOUDY    44  36  73 S14       29.58S
OKC/WILEY POST CLOUDY    47  38  71 S17       29.57R
OKC/TINKER AFB CLOUDY    45  36  72 S16       29.58S
STILLWATER     CLEAR     45  34  65 S13       29.58S
GUTHRIE        CLEAR     48  37  65 S10       29.57S
$$

OKZ008-013-054>072-241400-
NORTHEAST OKLAHOMA

CITY           SKY/WX    TMP DP  RH WIND       PRES   REMARKS
TULSA          PTCLDY    46  35  65 S13       29.63S
TULSA/JONES    CLEAR     45  33  63 S7        29.64R
PONCA CITY     CLEAR     47  34  60 S14       29.55S
BARTLESVILLE   CLEAR     41  32  70 S6        29.62F
MUSKOGEE       PTCLDY    45  35  68 S14       29.69R
$$

OKZ032-040>043-046>053-073>077-241400-
SOUTH CENTRAL/SOUTHEAST OKLAHOMA

CITY           SKY/WX    TMP DP  RH WIND       PRES   REMARKS
ARDMORE/DWNTWN PTCLDY    43  36  75 CALM      29.65R
MCALESTER      PTCLDY    54  33  45 S7        29.69R
$$





USA.gov is the U.S. government's official web portal to all federal, state and local government web resources and services.